Home   Weather   Sarnia   Past weeks

Flag for Canada Past Weather in Sarnia, Ontario, Canada — Yesterday and Last 2 Weeks

Now
39 °F

Overcast.


Feels Like: 34 °F
Forecast: N/A
Wind: 7 mph from West

Location: Sarnia Airport

Current Time: Dec 3, 2016 at 6:55:55 pm

Latest Report: Dec 3, 2016 at 6:00 pm


Visibility: 9 mi

Pressure: 30.30 "Hg

Humidity: 70%

Dew Point: 30 °F

Location of SarniaLocation

Past Weather in Sarnia — Graph

°F

Sarnia Temperature Yesterday

Maximum temperature yesterday: 41 °F (at 12:00 am)
Minimum temperature yesterday: 37 °F (at 1:53 am)
Average temperature yesterday: 39 °F

High & Low Weather Summary for the Past Weeks

 TemperatureHumidityPressure
High66 °F (Nov 18, 5:00 pm)100% (Nov 23, 3:51 pm)30.38 "Hg (Nov 23, 3:51 pm)
Low21 °F (Nov 23, 4:00 am)48% (Nov 21, 3:00 pm)29.44 "Hg (Nov 29, 2:00 am)
Average39 °F81%30.00 "Hg
* Reported Nov 18 5:00 pm — Dec 3 5:00 pm, Sarnia, Weather by CustomWeather, © 2016

Note: Actual official high and low records may vary slightly from our data, if they occured in-between our weather recording intervals... More about our weather records

Advertising

Sarnia Weather History for the Previous 24 Hours

Scroll right to see more
 ConditionsComfort  
Time TempWeatherWind HumidityBarometerVisibility
5:00 pm
Sat, Dec 3
39 °FOvercast.8 mph70%30.29 "Hg9 mi
4:00 pm39 °FOvercast.8 mph70%30.29 "Hg9 mi
3:00 pm39 °FOvercast.9 mph75%30.29 "Hg9 mi
2:00 pm39 °FOvercast.9 mph75%30.26 "Hg9 mi
1:00 pm39 °FMostly cloudy.10 mph81%30.25 "Hg9 mi
12:00 pm39 °FOvercast.10 mph75%30.27 "Hg9 mi
11:00 am37 °FOvercast.8 mph81%30.29 "Hg9 mi
10:00 am37 °FOvercast.10 mph81%30.30 "Hg9 mi
9:00 am37 °FMore clouds than sun.12 mph81%30.28 "Hg9 mi
8:01 am37 °FMore clouds than sun.9 mph81%30.27 "Hg9 mi
7:00 am37 °FMostly cloudy.12 mph81%30.25 "Hg9 mi
6:00 am37 °FOvercast.9 mph81%30.25 "Hg9 mi
5:00 am36 °FOvercast.9 mph87%30.24 "Hg9 mi
4:00 am37 °FOvercast.9 mph81%30.23 "Hg9 mi
3:00 am37 °FOvercast.13 mph81%30.23 "Hg9 mi
2:00 am37 °FPassing clouds.10 mph81%30.20 "Hg9 mi
1:00 am37 °FOvercast.12 mph81%30.20 "Hg9 mi
12:04 am37 °FOvercast.15 mph81%30.20 "Hg9 mi
11:00 pm
Fri, Dec 2
37 °FOvercast.14 mph81%30.19 "Hg9 mi
10:00 pm39 °FOvercast.15 mph70%30.17 "Hg9 mi
9:00 pm39 °FOvercast.15 mph70%30.15 "Hg9 mi
8:00 pm39 °FOvercast.15 mph70%30.14 "Hg9 mi
7:00 pm37 °FOvercast.12 mph75%30.11 "Hg9 mi
6:00 pm37 °FPassing clouds.12 mph75%30.09 "Hg9 mi
Weather by CustomWeather, © 2016

See weather overviewHow to use our weather pages